• In Czech Republic
  • List of Countries
  • For 7 days
  • Water Temperature
  • Satellite Maps
  • Weather Map
  • Weather Widgets
  • user-avatar
    Login

    Hourly Weather Northwich

    Today, 22 November, Wednesday

    Time Temperature Precipitation Wind Pressure Humidity
    00:00 +13°C° 0 mm 5 mps 746 mmHg 91%
    01:00 +13°C° 1.2 mm 5 mps 746 mmHg 92%
    02:00 +13°C° 1.2 mm 5 mps 745 mmHg 92%
    03:00 +13°C° 1.2 mm 6 mps 744 mmHg 92%
    04:00 +13°C° 0.8 mm 6 mps 744 mmHg 90%
    05:00 +14°C° 0.8 mm 7 mps 743 mmHg 88%
    06:00 +14°C° 0.8 mm 7 mps 742 mmHg 85%
    07:00 +13°C° 0.3 mm 8 mps 742 mmHg 85%
    08:00 +13°C° 0.3 mm 9 mps 741 mmHg 84%
    09:00 +13°C° 0.3 mm 9 mps 740 mmHg 83%
    10:00 +13°C° 0.2 mm 10 mps 740 mmHg 82%
    11:00 +14°C° 0.2 mm 10 mps 739 mmHg 81%
    12:00 +14°C° 0.2 mm 10 mps 738 mmHg 81%
    13:00 +14°C° 0.4 mm 10 mps 737 mmHg 80%
    14:00 +14°C° 0.4 mm 10 mps 737 mmHg 80%
    15:00 +14°C° 0.4 mm 10 mps 736 mmHg 80%
    16:00 +14°C° 0.8 mm 11 mps 735 mmHg 80%
    17:00 +13°C° 0.8 mm 11 mps 734 mmHg 81%
    18:00 +13°C° 0.8 mm 11 mps 734 mmHg 81%
    19:00 +13°C° 0.8 mm 11 mps 733 mmHg 81%
    20:00 +13°C° 0.8 mm 10 mps 733 mmHg 81%
    21:00 +13°C° 0.8 mm 10 mps 733 mmHg 80%
    22:00 +13°C° 0.5 mm 9 mps 733 mmHg 81%
    23:00 +13°C° 0.5 mm 8 mps 733 mmHg 82%

    Tomorrow, 23 November, Thursday

    Time Temperature Precipitation Wind Pressure Humidity
    00:00 +12°C° 0.5 mm 8 mps 733 mmHg 84%
    01:00 +12°C° 0.6 mm 7 mps 733 mmHg 84%
    02:00 +11°C° 0.6 mm 7 mps 733 mmHg 85%
    03:00 +11°C° 0.6 mm 7 mps 733 mmHg 86%
    04:00 +9°C° 0.1 mm 7 mps 734 mmHg 82%
    05:00 +7°C° 0.1 mm 8 mps 735 mmHg 78%
    06:00 +6°C° 0.1 mm 8 mps 736 mmHg 74%
    07:00 +6°C° 0 mm 9 mps 737 mmHg 72%
    08:00 +6°C° 0 mm 9 mps 738 mmHg 70%
    09:00 +5°C° 0 mm 10 mps 739 mmHg 68%
    10:00 +6°C° 0 mm 10 mps 740 mmHg 66%
    11:00 +6°C° 0 mm 10 mps 742 mmHg 64%
    12:00 +7°C° 0 mm 10 mps 743 mmHg 62%
    13:00 +7°C° 0 mm 9 mps 744 mmHg 62%
    14:00 +6°C° 0 mm 8 mps 746 mmHg 62%
    15:00 +6°C° 0 mm 7 mps 747 mmHg 62%
    16:00 +7°C° 0 mm 6 mps 748 mmHg 63%
    17:00 +6°C° 0 mm 5 mps 748 mmHg 64%
    18:00 +6°C° 0 mm 4 mps 749 mmHg 65%
    19:00 +6°C° 0 mm 4 mps 749 mmHg 67%
    20:00 +7°C° 0 mm 3 mps 750 mmHg 68%
    21:00 +5°C° 0 mm 3 mps 750 mmHg 69%
    22:00 +5°C° 0 mm 3 mps 750 mmHg 69%
    23:00 +6°C° 0 mm 2 mps 750 mmHg 70%

    Day after tomorrow, 24 November, Friday

    Time Temperature Precipitation Wind Pressure Humidity
    00:00 +6°C° 0 mm 2 mps 750 mmHg 71%
    01:00 +6°C° 0 mm 2 mps 751 mmHg 71%
    02:00 +5°C° 0 mm 2 mps 751 mmHg 72%
    03:00 +4°C° 0 mm 3 mps 751 mmHg 73%
    04:00 +5°C° 0 mm 2 mps 752 mmHg 73%
    05:00 +5°C° 0 mm 2 mps 752 mmHg 73%
    06:00 +4°C° 0 mm 2 mps 752 mmHg 73%
    07:00 +4°C° 0 mm 2 mps 753 mmHg 73%
    08:00 +4°C° 0 mm 2 mps 753 mmHg 73%
    09:00 +4°C° 0 mm 2 mps 754 mmHg 73%
    10:00 +5°C° 0.1 mm 2 mps 754 mmHg 72%
    11:00 +6°C° 0.1 mm 2 mps 754 mmHg 71%
    12:00 +5°C° 0.1 mm 3 mps 754 mmHg 69%
    13:00 +6°C° 0.2 mm 2 mps 754 mmHg 70%
    14:00 +6°C° 0.2 mm 2 mps 754 mmHg 70%
    15:00 +6°C° 0.2 mm 2 mps 754 mmHg 71%
    16:00 +5°C° 0 mm 2 mps 755 mmHg 72%
    17:00 +4°C° 0 mm 2 mps 755 mmHg 74%
    18:00 +4°C° 0 mm 2 mps 755 mmHg 75%
    19:00 +4°C° 0 mm 2 mps 755 mmHg 76%
    20:00 +3°C° 0 mm 2 mps 755 mmHg 76%
    21:00 +3°C° 0 mm 2 mps 755 mmHg 76%
    22:00 +2°C° 0 mm 3 mps 755 mmHg 75%
    23:00 +2°C° 0 mm 3 mps 755 mmHg 74%

    25 November, Saturday

    Time Temperature Precipitation Wind Pressure Humidity
    00:00 +2°C° 0 mm 3 mps 755 mmHg 73%
    01:00 0°C° 0.1 mm 4 mps 755 mmHg 73%
    02:00 0°C° 0.1 mm 4 mps 755 mmHg 73%
    03:00 0°C° 0.1 mm 4 mps 755 mmHg 73%
    04:00 0°C° 0.1 mm 4 mps 755 mmHg 73%
    05:00 +1°C° 0.1 mm 5 mps 755 mmHg 74%
    06:00 +1°C° 0.1 mm 5 mps 755 mmHg 74%
    07:00 +1°C° 0.2 mm 5 mps 755 mmHg 73%
    08:00 +1°C° 0.2 mm 6 mps 755 mmHg 73%
    09:00 +1°C° 0.2 mm 6 mps 756 mmHg 72%
    10:00 +2°C° 0.4 mm 7 mps 756 mmHg 69%
    11:00 +3°C° 0.4 mm 7 mps 756 mmHg 67%
    12:00 +4°C° 0.4 mm 8 mps 756 mmHg 64%
    13:00 +2°C° 0.4 mm 8 mps 757 mmHg 66%
    14:00 +3°C° 0.4 mm 7 mps 757 mmHg 67%
    15:00 +3°C° 0.4 mm 7 mps 758 mmHg 69%
    16:00 +2°C° 0.1 mm 7 mps 758 mmHg 70%
    17:00 +2°C° 0.1 mm 7 mps 758 mmHg 72%
    18:00 +2°C° 0.1 mm 6 mps 758 mmHg 73%
    19:00 +2°C° 0 mm 7 mps 759 mmHg 74%
    20:00 +2°C° 0 mm 7 mps 759 mmHg 74%
    21:00 +2°C° 0 mm 7 mps 759 mmHg 75%
    22:00 +3°C° 0.5 mm 7 mps 759 mmHg 77%
    23:00 +3°C° 0.5 mm 7 mps 760 mmHg 78%

    26 November, Sunday

    Time Temperature Precipitation Wind Pressure Humidity
    00:00 +4°C° 0.5 mm 8 mps 760 mmHg 80%
    01:00 +4°C° 0.4 mm 7 mps 760 mmHg 80%
    02:00 +3°C° 0.4 mm 7 mps 760 mmHg 79%
    03:00 +3°C° 0.4 mm 6 mps 760 mmHg 79%
    04:00 +3°C° 0.3 mm 6 mps 761 mmHg 80%
    05:00 +3°C° 0.3 mm 6 mps 761 mmHg 80%
    06:00 +3°C° 0.3 mm 5 mps 761 mmHg 81%
    07:00 +3°C° 0.4 mm 5 mps 762 mmHg 79%
    08:00 +3°C° 0.4 mm 5 mps 762 mmHg 78%
    09:00 +3°C° 0.4 mm 5 mps 762 mmHg 77%
    10:00 +3°C° 0.2 mm 5 mps 763 mmHg 74%
    11:00 +4°C° 0.2 mm 6 mps 763 mmHg 72%
    12:00 +4°C° 0.2 mm 6 mps 763 mmHg 69%
    13:00 +4°C° 0.2 mm 6 mps 763 mmHg 71%
    14:00 +4°C° 0.2 mm 6 mps 763 mmHg 73%
    15:00 +4°C° 0.2 mm 6 mps 763 mmHg 75%
    16:00 +3°C° 0.1 mm 5 mps 763 mmHg 76%
    17:00 +3°C° 0.1 mm 5 mps 764 mmHg 76%
    18:00 +3°C° 0.1 mm 5 mps 764 mmHg 77%
    19:00 +3°C° 0.1 mm 5 mps 764 mmHg 78%
    20:00 +4°C° 0.1 mm 4 mps 764 mmHg 78%
    21:00 +3°C° 0.1 mm 4 mps 764 mmHg 79%
    22:00 +3°C° 0 mm 4 mps 764 mmHg 80%
    23:00 +3°C° 0 mm 4 mps 764 mmHg 81%

    27 November, Monday

    Time Temperature Precipitation Wind Pressure Humidity
    00:00 +3°C° 0 mm 4 mps 764 mmHg 82%
    01:00 +3°C° 0 mm 4 mps 763 mmHg 82%
    02:00 +3°C° 0 mm 4 mps 762 mmHg 83%
    03:00 +3°C° 0 mm 4 mps 762 mmHg 83%
    04:00 +2°C° 0.3 mm 5 mps 760 mmHg 84%
    05:00 +3°C° 0.3 mm 5 mps 759 mmHg 84%
    06:00 +3°C° 0.3 mm 6 mps 758 mmHg 85%
    07:00 +4°C° 1 mm 6 mps 757 mmHg 86%
    08:00 +4°C° 1 mm 6 mps 756 mmHg 87%
    09:00 +5°C° 1 mm 7 mps 755 mmHg 88%
    10:00 +5°C° 1 mm 7 mps 755 mmHg 88%
    11:00 +5°C° 1 mm 6 mps 754 mmHg 89%
    12:00 +5°C° 1 mm 6 mps 753 mmHg 89%
    13:00 +6°C° 1.3 mm 5 mps 752 mmHg 88%
    14:00 +5°C° 1.3 mm 4 mps 751 mmHg 87%
    15:00 +5°C° 1.3 mm 3 mps 751 mmHg 85%
    16:00 +4°C° 0.4 mm 3 mps 750 mmHg 84%
    17:00 +5°C° 0.4 mm 2 mps 750 mmHg 83%
    18:00 +4°C° 0.4 mm 2 mps 749 mmHg 82%
    19:00 +4°C° 0.1 mm 2 mps 749 mmHg 83%
    20:00 +4°C° 0.1 mm 2 mps 749 mmHg 83%
    21:00 +4°C° 0.1 mm 2 mps 748 mmHg 84%
    22:00 +4°C° 0.2 mm 2 mps 748 mmHg 84%
    23:00 +3°C° 0.2 mm 3 mps 748 mmHg 85%
    Show more